| time (UTC) | temp F | wind direction | speed MPH | gust MPH | rain 1hr in | rain 24hr in | rain mn in | humidity % | barometer mb |
| 20260507090055 | 51 | 21 | 3.0 | 6.0 | 0.00 | 0.05 | 0.00 | 91 | 1016.9 |
| 20260507084537 | 52 | 5 | 2.0 | 5.0 | 0.00 | 0.05 | 0.00 | 90 | 1016.9 |
| 20260507083036 | 52 | 19 | 3.0 | 6.0 | 0.00 | 0.05 | 0.00 | 90 | 1016.7 |
| 20260507081549 | 52 | 73 | 2.0 | 4.0 | 0.00 | 0.05 | 0.00 | 90 | 1016.4 |
| 20260507080034 | 52 | 87 | 3.0 | 6.0 | 0.00 | 0.05 | 0.00 | 90 | 1016.3 |
| 20260507074537 | 53 | 79 | 3.0 | 6.0 | 0.00 | 0.05 | 0.00 | 90 | 1016.2 |
| 20260507073036 | 53 | 87 | 4.0 | 8.0 | 0.00 | 0.05 | 0.00 | 90 | 1016.2 |
| 20260507071529 | 53 | 96 | 3.0 | 6.0 | 0.00 | 0.05 | 0.00 | 90 | 1016.4 |
| 20260507070028 | 53 | 80 | 4.0 | 6.0 | 0.00 | 0.05 | 0.00 | 90 | 1016.6 |
| 20260507064526 | 53 | 67 | 2.0 | 6.0 | 0.00 | 0.05 | 0.00 | 90 | 1016.8 |
| 20260507063024 | 53 | 75 | 4.0 | 10.0 | 0.00 | 0.05 | 0.00 | 90 | 1016.8 |
| 20260507061530 | 54 | 64 | 5.0 | 11.0 | 0.00 | 0.05 | 0.00 | 90 | 1016.8 |
| 20260507060031 | 54 | 77 | 4.0 | 11.0 | 0.00 | 0.05 | 0.00 | 91 | 1016.8 |
| 20260507054522 | 54 | 59 | 5.0 | 10.0 | 0.00 | 0.05 | 0.00 | 91 | 1016.9 |
| 20260507053017 | 54 | 69 | 5.0 | 10.0 | 0.00 | 0.05 | 0.00 | 91 | 1017.3 |
| 20260507051513 | 54 | 65 | 3.0 | 10.0 | 0.00 | 0.05 | 0.00 | 91 | 1017.4 |
| 20260507050020 | 54 | 38 | 3.0 | 7.0 | 0.00 | 0.05 | 0.00 | 91 | 1017.4 |
| 20260507044521 | 54 | 51 | 3.0 | 10.0 | 0.00 | 0.05 | 0.05 | 91 | 1017.5 |
| 20260507043008 | 54 | 64 | 5.0 | 11.0 | 0.00 | 0.05 | 0.05 | 91 | 1017.4 |
| 20260507041507 | 54 | 78 | 7.0 | 12.0 | 0.00 | 0.05 | 0.05 | 91 | 1017.3 |
| 20260507040010 | 54 | 46 | 6.0 | 11.0 | 0.00 | 0.05 | 0.05 | 91 | 1017.3 |
| 20260507034506 | 54 | 49 | 5.0 | 10.0 | 0.02 | 0.05 | 0.05 | 90 | 1017.1 |
| 20260507033008 | 54 | 46 | 7.0 | 10.0 | 0.05 | 0.05 | 0.05 | 90 | 1016.8 |
| 20260507031501 | 54 | 62 | 5.0 | 14.0 | 0.05 | 0.05 | 0.05 | 89 | 1016.7 |
| 20260507030108 | 54 | 30 | 9.0 | 17.0 | 0.05 | 0.05 | 0.05 | 89 | 1016.4 |
| 20260507024607 | 55 | 66 | 10.0 | 15.0 | 0.03 | 0.03 | 0.03 | 89 | 1016.2 |
| 20260507023053 | 55 | 73 | 7.0 | 15.0 | 0.00 | 0.00 | 0.00 | 89 | 1016.1 |
| 20260507021607 | 55 | 55 | 9.0 | 17.0 | 0.00 | 0.00 | 0.00 | 89 | 1015.5 |
| 20260507020053 | 55 | 46 | 8.0 | 14.0 | 0.00 | 0.00 | 0.00 | 89 | 1015.0 |
| 20260507014607 | 56 | 59 | 9.0 | 16.0 | 0.00 | 0.00 | 0.00 | 88 | 1014.4 |
| 20260507013044 | 56 | 40 | 9.0 | 16.0 | 0.00 | 0.00 | 0.00 | 89 | 1014.6 |
| 20260507011544 | 56 | 53 | 7.0 | 14.0 | 0.00 | 0.00 | 0.00 | 89 | 1014.5 |
| 20260507010047 | 57 | 63 | 9.0 | 16.0 | 0.00 | 0.00 | 0.00 | 88 | 1013.9 |
| 20260507004542 | 57 | 51 | 5.0 | 16.0 | 0.00 | 0.00 | 0.00 | 88 | 1014.0 |
| 20260507003039 | 58 | 67 | 9.0 | 17.0 | 0.00 | 0.00 | 0.00 | 88 | 1013.4 |
| 20260507001539 | 58 | 53 | 10.0 | 15.0 | 0.00 | 0.00 | 0.00 | 88 | 1013.3 |
| 20260507000042 | 59 | 42 | 5.0 | 12.0 | 0.00 | 0.00 | 0.00 | 88 | 1013.4 |
| 20260506234537 | 59 | 19 | 7.0 | 13.0 | 0.00 | 0.00 | 0.00 | 88 | 1013.3 |
| 20260506233037 | 59 | 43 | 6.0 | 13.0 | 0.00 | 0.00 | 0.00 | 88 | 1013.2 |
| 20260506231536 | 60 | 63 | 9.0 | 15.0 | 0.00 | 0.00 | 0.00 | 88 | 1013.1 |
| 20260506230036 | 60 | 56 | 3.0 | 11.0 | 0.00 | 0.00 | 0.00 | 88 | 1012.9 |
| 20260506224537 | 60 | 19 | 7.0 | 14.0 | 0.00 | 0.00 | 0.00 | 88 | 1012.5 |
| 20260506223037 | 60 | 54 | 6.0 | 11.0 | 0.00 | 0.00 | 0.00 | 89 | 1012.2 |
| 20260506221534 | 60 | 22 | 5.0 | 12.0 | 0.00 | 0.00 | 0.00 | 89 | 1012.2 |
| 20260506220037 | 60 | 38 | 4.0 | 10.0 | 0.00 | 0.00 | 0.00 | 89 | 1012.2 |
| 20260506214532 | 60 | 5 | 3.0 | 10.0 | 0.00 | 0.00 | 0.00 | 89 | 1012.3 |
| 20260506213031 | 60 | 44 | 4.0 | 11.0 | 0.00 | 0.00 | 0.00 | 89 | 1012.5 |
| 20260506211532 | 60 | 360 | 3.0 | 9.0 | 0.00 | 0.00 | 0.00 | 88 | 1012.7 |
| 20260506210032 | 60 | 5 | 3.0 | 10.0 | 0.00 | 0.00 | 0.00 | 88 | 1012.4 |
| 20260506204530 | 60 | 310 | 6.0 | 13.0 | 0.00 | 0.00 | 0.00 | 88 | 1013.2 |
| 20260506203030 | 61 | 61 | 1.0 | 11.0 | 0.00 | 0.00 | 0.00 | 88 | 1012.5 |
| 20260506201541 | 61 | 42 | 2.0 | 6.0 | 0.00 | 0.00 | 0.00 | 88 | 1012.6 |
| 20260506200029 | 61 | 60 | 0.0 | 10.0 | 0.00 | 0.00 | 0.00 | 88 | 1012.4 |
| 20260506194529 | 60 | 48 | 2.0 | 7.0 | 0.00 | 0.00 | 0.00 | 88 | 1012.5 |
| 20260506193027 | 60 | 42 | 4.0 | 8.0 | 0.00 | 0.00 | 0.00 | 88 | 1012.1 |
| 20260506191527 | 60 | 65 | 3.0 | 11.0 | 0.00 | 0.00 | 0.00 | 88 | 1011.8 |
| 20260506190026 | 59 | 66 | 7.0 | 15.0 | 0.00 | 0.00 | 0.00 | 89 | 1011.3 |
| 20260506184526 | 59 | 341 | 6.0 | 12.0 | 0.00 | 0.00 | 0.00 | 88 | 1012.0 |
| 20260506183024 | 59 | 117 | 11.0 | 19.0 | 0.00 | 0.00 | 0.00 | 88 | 1011.7 |
| 20260506181522 | 58 | 74 | 14.0 | 19.0 | 0.00 | 0.00 | 0.00 | 88 | 1010.7 |
| 20260506180021 | 58 | 54 | 10.0 | 15.0 | 0.00 | 0.00 | 0.00 | 88 | 1011.9 |
| 20260506174520 | 57 | 47 | 5.0 | 14.0 | 0.00 | 0.00 | 0.00 | 88 | 1013.2 |
| 20260506173019 | 57 | 39 | 9.0 | 14.0 | 0.00 | 0.00 | 0.00 | 88 | 1012.0 |
| 20260506171519 | 57 | 304 | 4.0 | 9.0 | 0.00 | 0.00 | 0.00 | 88 | 1014.2 |
| 20260506170019 | 57 | 342 | 3.0 | 9.0 | 0.00 | 0.00 | 0.00 | 88 | 1014.3 |
| 20260506164517 | 57 | 68 | 4.0 | 9.0 | 0.00 | 0.00 | 0.00 | 88 | 1013.7 |
| 20260506163030 | 56 | 17 | 3.0 | 8.0 | 0.00 | 0.00 | 0.00 | 88 | 1013.9 |
| 20260506161516 | 56 | 13 | 2.0 | 5.0 | 0.00 | 0.00 | 0.00 | 88 | 1014.6 |
| 20260506160016 | 56 | 19 | 2.0 | 10.0 | 0.00 | 0.00 | 0.00 | 88 | 1014.1 |
| 20260506154514 | 56 | 347 | 5.0 | 11.0 | 0.00 | 0.00 | 0.00 | 87 | 1013.7 |
| 20260506153009 | 56 | 12 | 2.0 | 9.0 | 0.00 | 0.00 | 0.00 | 87 | 1013.2 |
| 20260506151509 | 56 | 11 | 2.0 | 10.0 | 0.00 | 0.00 | 0.00 | 87 | 1012.7 |
| 20260506150008 | 56 | 13 | 2.0 | 11.0 | 0.00 | 0.00 | 0.00 | 87 | 1013.2 |
| 20260506144508 | 55 | 9 | 3.0 | 11.0 | 0.00 | 0.00 | 0.00 | 87 | 1012.7 |
| 20260506143007 | 55 | 13 | 6.0 | 12.0 | 0.00 | 0.00 | 0.00 | 87 | 1012.3 |
| 20260506141501 | 55 | 19 | 3.0 | 13.0 | 0.00 | 0.00 | 0.00 | 87 | 1012.2 |
| 20260506140104 | 55 | 355 | 5.0 | 12.0 | 0.00 | 0.00 | 0.00 | 86 | 1012.1 |
| 20260506134558 | 55 | 26 | 4.0 | 11.0 | 0.00 | 0.00 | 0.00 | 86 | 1011.8 |
| 20260506133101 | 55 | 340 | 5.0 | 12.0 | 0.00 | 0.00 | 0.00 | 86 | 1012.0 |
| 20260506131552 | 55 | 355 | 5.0 | 12.0 | 0.00 | 0.00 | 0.00 | 86 | 1011.8 |
| 20260506130053 | 55 | 15 | 5.0 | 11.0 | 0.00 | 0.00 | 0.00 | 86 | 1011.7 |
| 20260506124545 | 56 | 47 | 6.0 | 12.0 | 0.00 | 0.00 | 0.00 | 85 | 1011.5 |
| 20260506123043 | 56 | 11 | 7.0 | 13.0 | 0.00 | 0.00 | 0.00 | 84 | 1011.4 |
| 20260506121539 | 57 | 59 | 3.0 | 9.0 | 0.00 | 0.00 | 0.00 | 84 | 1010.8 |
| 20260506120037 | 57 | 5 | 3.0 | 11.0 | 0.00 | 0.00 | 0.00 | 83 | 1010.6 |
| 20260506114534 | 57 | 344 | 7.0 | 12.0 | 0.00 | 0.00 | 0.00 | 83 | 1010.3 |
| 20260506113031 | 57 | 360 | 4.0 | 12.0 | 0.00 | 0.00 | 0.00 | 82 | 1009.9 |
| 20260506111528 | 58 | 5 | 2.0 | 13.0 | 0.00 | 0.00 | 0.00 | 82 | 1009.6 |
| 20260506110025 | 58 | 355 | 2.0 | 9.0 | 0.00 | 0.00 | 0.00 | 82 | 1009.3 |
| 20260506104522 | 58 | 320 | 4.0 | 11.0 | 0.00 | 0.00 | 0.00 | 82 | 1009.1 |
| 20260506103022 | 58 | 27 | 4.0 | 11.0 | 0.00 | 0.00 | 0.00 | 82 | 1009.1 |
| 20260506101519 | 59 | 26 | 3.0 | 9.0 | 0.00 | 0.00 | 0.00 | 82 | 1008.6 |
| 20260506100015 | 59 | 346 | 3.0 | 8.0 | 0.00 | 0.00 | 0.00 | 82 | 1008.8 |
| 20260506094514 | 59 | 15 | 3.0 | 8.0 | 0.00 | 0.00 | 0.00 | 82 | 1008.7 |
| 20260506093013 | 59 | 45 | 1.0 | 4.0 | 0.00 | 0.00 | 0.00 | 82 | 1008.4 |
| 20260506091609 | 59 | 16 | 3.0 | 10.0 | 0.00 | 0.00 | 0.00 | 81 | 1008.3 |